[[{"header":{"parameterUnit":"m.s-1","parameterCategory":1,"la1":30.2991,"la2":30.254,"lo1":-89.0895,"lo2":-89.0444,"dy":0.0017,"dx":0.0017,"nx":28,"ny":28,"refTime":"2023-09-21T21:00:00:Z","depth":0,"parameterNumber":2,"parameterNumberName":"U-component_of_WINDS"},"data":[0,0,0,0,0,0,0,0,0,0,0,0,0,0,0,0,0,0,0,0,0,0,0,0,0,0,0,0,0,0,0,0,0,0,0,0,0,0,0,0,0,0,0,0,0,0,0,0,0,0,0,0,0,0,0,0,0,0,-0.9797,-0.9797,0,-0.979,-0.979,-0.979,-0.971,-0.9708,-0.9706,-0.9704,-0.97,-0.9701,-0.9703,0,0,0,0,0,0,0,0,0,0,0,0,0,-0.9743,-0.9744,-0.9797,-0.9797,-0.9797,-0.979,-0.979,-0.979,-0.971,-0.9708,-0.9705,-0.9703,-0.9699,-0.9701,-0.9703,0,0,0,0,0,0,0,0,0,0,0,0,0,-0.9754,-0.9745,-0.9798,-0.9756,-0.9753,-0.979,-0.979,-0.979,-0.9711,-0.9708,-0.9705,-0.9702,-0.9698,-0.9701,-0.9704,-0.9781,0,0,-0.9712,-0.9713,0,0,0,0,0,0,0,0,-0.9754,-0.9757,-0.9763,-0.9759,-0.9755,-0.9748,-0.9769,-0.9787,-0.9712,-0.9727,-0.9704,-0.97,-0.9718,-0.9719,-0.9725,-0.9781,-0.9781,-0.9712,-0.9714,-0.9715,-0.9716,0,0,0,0,0,0,0,-0.9753,-0.9756,-0.9795,-0.9763,-0.9758,-0.9739,-0.9737,-0.9772,-0.974,-0.9725,-0.9719,-0.9719,-0.9716,-0.9722,-0.9724,-0.9781,-0.9712,-0.9714,-0.9716,-0.9717,-0.9898,-0.9901,0,0,0,0,0,0,-0.9758,-0.9756,-0.9795,-0.9795,-0.9747,-0.9742,-0.974,-0.9753,-0.9739,-0.9734,-0.9722,-0.9716,-0.9719,-0.9721,-0.9724,-0.9812,-0.9715,-0.9717,-0.9719,-0.9895,-0.9899,-0.9903,0,0,0,0,0,0,-0.9757,-0.9762,-0.9795,-0.9774,-0.9776,-0.9746,-0.9762,-0.9755,-0.9761,-0.9737,-0.9731,-0.9735,-0.9717,-0.972,-0.9767,-0.9811,-0.9718,-0.9721,-0.9891,-0.9896,-0.9901,-0.9992,0,0,0,0,0,0,-0.9756,-0.9762,-0.9791,-0.9775,-0.9778,-0.9839,-0.9764,-0.9757,-0.9766,-0.9757,-0.9747,-0.9742,-0.9715,-0.9763,-0.977,-0.9813,-0.9723,-0.9887,-0.9894,-0.9899,-0.9985,-0.9999,-1.0011,0,0,0,0,0,-0.9754,-0.9818,-0.9793,-0.9798,-0.9814,-0.9841,-0.9843,-0.9809,-0.977,-0.9799,-0.9782,-0.9743,-0.9805,-0.9769,-0.9775,-0.982,-0.9884,-0.9892,-0.9899,-0.9979,-0.9996,-1.0011,0,0,0,0,0,0,-0.9842,-0.9815,-0.9787,-0.9848,-0.9847,-0.9828,-0.9864,-0.9829,-0.9841,-0.9833,-0.979,-0.9789,-0.9842,-0.9836,-0.9796,-0.9894,-0.9838,-0.9847,-0.9896,-0.9913,-0.9926,-0.9927,-0.9725,0,0,0,0,0,-0.9869,-0.9893,-0.9868,-0.9924,-0.9925,-0.9894,-0.9905,-0.9879,-0.9877,-0.9877,-0.9864,-0.9865,-0.9884,-0.9898,-0.9914,-0.9983,-0.9979,-1.0017,-1.003,-1.0041,-1.005,-1.0085,-1.0101,-0.9926,-0.9926,-0.9926,0,0,-0.9924,-0.9912,-0.993,-0.9942,-0.9938,-0.9964,-0.9895,-0.9926,-0.9945,-0.9882,-0.9925,-0.9916,-0.9913,-0.9971,-0.9996,-0.9967,-1.0097,-1.0051,-1.006,-1.0062,-1.0094,-1.011,-1.0125,-0.9931,-0.993,-0.993,0,0,-1.0038,-1.0031,-1.0076,-1.0073,-1.0068,-1.0047,-1.0058,-1.0043,-1.0034,-1.0076,-1.0028,-1.0051,-1.0085,-1.0085,-1.0089,-1.02,-1.0164,-1.0207,-1.0277,-1.0312,-1.0325,-1.0337,-1.0377,-1.0392,-1.0215,-1.0216,-1.0216,0,-1.0108,-1.0144,-1.0104,-1.0138,-1.0144,-1.0086,-1.0131,-1.013,-1.0132,-1.0137,-1.0105,-1.0146,-1.014,-1.0196,-1.0223,-1.0229,-1.024,-1.0209,-1.0326,-1.0338,-1.0349,-1.0386,-1.0401,-1.0221,-1.022,-1.022,-1.0219,0,-1.023,-1.0256,-1.0293,-1.0294,-1.0304,-1.0344,-1.031,-1.0325,-1.0297,-1.0279,-1.0322,-1.0313,-1.0326,-1.0337,-1.0311,-1.039,-1.0372,-1.0334,-1.0277,-1.0371,-1.0405,-1.0419,-1.0228,-1.0226,-1.0225,-1.0224,0,0,-1.0402,-1.0377,-1.0392,-1.039,-1.0379,-1.0399,-1.0435,-1.0446,-1.046,-1.0462,-1.0491,-1.0521,-1.0485,-1.049,-1.0463,-1.0493,-1.058,-1.045,-1.045,-1.0475,-1.0666,-1.0695,-1.0712,-1.0556,-1.0558,-1.056,-1.0666,0,-1.0511,-1.0571,-1.0535,-1.0601,-1.0624,-1.0567,-1.0599,-1.0595,-1.0579,-1.0597,-1.0579,-1.0601,-1.0551,-1.0554,-1.0581,-1.0564,-1.0618,-1.0556,-1.0583,-1.0585,-1.0586,-1.073,-1.0762,-1.0862,-1.0679,-1.0682,-1.0683,0,-1.0648,-1.0653,-1.0721,-1.0703,-1.0711,-1.074,-1.0747,-1.0764,-1.0759,-1.0745,-1.0749,-1.0714,-1.0748,-1.0691,-1.0738,-1.0696,-1.0705,-1.0698,-1.0701,-1.0703,-1.064,-1.0737,-1.0894,-1.0909,-1.0704,-1.0702,-1.0701,0,-1.0766,-1.0791,-1.0834,-1.0834,-1.0815,-1.0836,-1.0829,-1.082,-1.0829,-1.0835,-1.0839,-1.085,-1.0856,-1.0865,-1.0833,-1.0795,-1.0884,-1.0825,-1.0874,-1.0875,-1.0897,-1.0896,-1.1058,-1.0902,-1.0901,-1.0901,-1.0901,0,-1.0893,-1.0936,-1.0886,-1.0913,-1.096,-1.0917,-1.0965,-1.0952,-1.0944,-1.0967,-1.0919,-1.0943,-1.0899,-1.0918,-1.0893,-1.0936,-1.0939,-1.0929,-1.0922,-1.0933,-1.0935,-1.0939,-1.0932,-1.0905,-1.0904,-1.0903,-1.0903,0,-1.1033,-1.1002,-1.1045,-1.1021,-1.1016,-1.1052,-1.1032,-1.1056,-1.1035,-1.1065,-1.107,-1.1039,-1.1058,-1.1027,-1.1043,-1.1026,-1.1085,-1.1067,-1.1087,-1.1082,-1.1133,-1.1129,-1.1304,-1.1325,-1.1155,-1.1157,-1.1158,0,-1.1117,-1.1148,-1.1127,-1.1139,-1.1134,-1.1153,-1.1161,-1.112,-1.113,-1.1125,-1.1149,-1.1164,-1.1174,-1.1207,-1.1186,-1.1198,-1.118,-1.1241,-1.1182,-1.1192,-1.1181,-1.118,-1.1183,-1.1253,-1.1256,-1.1257,-1.1259,0,-1.1268,-1.125,-1.1262,-1.1268,-1.1278,-1.1281,-1.1282,-1.1294,-1.125,-1.1264,-1.1282,-1.129,-1.1305,-1.132,-1.1326,-1.132,-1.1283,-1.1277,-1.1289,-1.1302,-1.1311,-1.1307,-1.112,-1.1273,-1.1272,-1.1271,-1.127,-1.1269,-1.1382,-1.1407,-1.1396,-1.141,-1.1405,-1.1406,-1.1427,-1.1407,-1.1421,-1.143,-1.1405,-1.1429,-1.1421,-1.1425,-1.1422,-1.144,-1.1414,-1.1431,-1.1436,-1.1441,-1.1449,-1.1308,-1.1441,-1.1441,-1.144,-1.144,-1.144,0,-1.1531,-1.152,-1.1533,-1.1534,-1.1545,-1.1506,-1.1504,-1.1517,-1.1538,-1.1533,-1.1542,-1.1563,-1.1577,-1.1556,-1.1567,-1.1585,-1.1569,-1.159,-1.1588,-1.1587,-1.1472,-1.1461,-1.1603,-1.1603,-1.1603,-1.1603,-1.1603,-1.1603,-1.1609,-1.1649,-1.1629,-1.1666,-1.1654,-1.1676,-1.1678,-1.1678,-1.1674,-1.1698,-1.1709,-1.1694,-1.1683,-1.1692,-1.1703,-1.1697,-1.1703,-1.1731,-1.1718,-1.1611,-1.1596,-1.158,-1.1569,-1.1732,-1.1732,-1.1832,-1.1833,-1.1833]},{"header":{"parameterUnit":"m.s-1","parameterCategory":1,"la1":30.2991,"la2":30.254,"lo1":-89.0895,"lo2":-89.0444,"dy":0.0017,"dx":0.0017,"nx":28,"ny":28,"refTime":"2023-09-21T21:00:00:Z","depth":0,"parameterNumber":3,"parameterNumberName":"V-component_of_WINDS"},"data":[0,0,0,0,0,0,0,0,0,0,0,0,0,0,0,0,0,0,0,0,0,0,0,0,0,0,0,0,0,0,0,0,0,0,0,0,0,0,0,0,0,0,0,0,0,0,0,0,0,0,0,0,0,0,0,0,0,0,-2.5944,-2.5945,0,-2.6028,-2.6029,-2.603,-2.6046,-2.6045,-2.6045,-2.6044,-2.6125,-2.6127,-2.613,0,0,0,0,0,0,0,0,0,0,0,0,0,-2.5793,-2.5796,-2.5944,-2.5945,-2.5946,-2.6028,-2.6029,-2.603,-2.6046,-2.6045,-2.6044,-2.6044,-2.6124,-2.6127,-2.613,0,0,0,0,0,0,0,0,0,0,0,0,0,-2.5866,-2.5797,-2.5944,-2.5964,-2.5967,-2.6028,-2.6029,-2.603,-2.6046,-2.6045,-2.6044,-2.6043,-2.6123,-2.6127,-2.6131,-2.6176,0,0,-2.6144,-2.6145,0,0,0,0,0,0,0,0,-2.5862,-2.5871,-2.596,-2.5963,-2.5966,-2.6026,-2.6005,-2.6079,-2.6046,-2.6016,-2.6044,-2.6043,-2.6092,-2.6099,-2.6116,-2.618,-2.6183,-2.6144,-2.6146,-2.6148,-2.6149,0,0,0,0,0,0,0,-2.5857,-2.5868,-2.5977,-2.5961,-2.5965,-2.5967,-2.5977,-2.6019,-2.6058,-2.6018,-2.602,-2.603,-2.6094,-2.6112,-2.6118,-2.6184,-2.6144,-2.6147,-2.615,-2.6152,-2.6287,-2.6288,0,0,0,0,0,0,-2.5849,-2.5864,-2.5974,-2.598,-2.5911,-2.5971,-2.5981,-2.6007,-2.6058,-2.6065,-2.6031,-2.603,-2.6106,-2.6114,-2.6121,-2.6176,-2.6148,-2.6152,-2.6154,-2.6286,-2.6288,-2.6289,0,0,0,0,0,0,-2.5845,-2.5859,-2.5971,-2.5922,-2.5937,-2.5975,-2.6004,-2.6009,-2.6028,-2.6067,-2.6074,-2.6043,-2.6105,-2.6116,-2.6162,-2.6179,-2.6154,-2.6158,-2.6285,-2.6287,-2.6288,-2.6287,0,0,0,0,0,0,-2.5841,-2.5857,-2.5876,-2.5922,-2.5939,-2.6012,-2.6005,-2.6012,-2.6036,-2.6036,-2.6081,-2.6087,-2.6105,-2.6156,-2.6166,-2.6185,-2.6161,-2.6283,-2.6286,-2.6288,-2.6286,-2.6289,-2.6291,0,0,0,0,0,-2.5836,-2.5871,-2.5877,-2.589,-2.5964,-2.6013,-2.6022,-2.6044,-2.6037,-2.6056,-2.608,-2.6085,-2.6176,-2.6161,-2.6172,-2.6192,-2.6282,-2.6285,-2.6287,-2.6285,-2.6288,-2.6291,0,0,0,0,0,0,-2.5824,-2.5878,-2.5884,-2.5937,-2.597,-2.6016,-2.6039,-2.6048,-2.6083,-2.6081,-2.6106,-2.6116,-2.616,-2.6181,-2.6163,-2.6238,-2.6229,-2.6234,-2.6223,-2.6226,-2.6229,-2.6222,-2.6164,0,0,0,0,0,-2.5828,-2.5866,-2.591,-2.5951,-2.5968,-2.6001,-2.6023,-2.6038,-2.6073,-2.6086,-2.6115,-2.6147,-2.6183,-2.6206,-2.6241,-2.629,-2.6298,-2.6309,-2.6311,-2.6313,-2.6317,-2.6343,-2.6347,-2.6297,-2.6297,-2.6297,0,0,-2.5836,-2.587,-2.5892,-2.595,-2.5978,-2.6014,-2.6013,-2.6051,-2.6078,-2.6092,-2.6138,-2.616,-2.6197,-2.6245,-2.6267,-2.6263,-2.6333,-2.6317,-2.6318,-2.632,-2.6346,-2.635,-2.6355,-2.6299,-2.6298,-2.6298,0,0,-2.5868,-2.5899,-2.5936,-2.5965,-2.6007,-2.6029,-2.6038,-2.6082,-2.6097,-2.6144,-2.6155,-2.6187,-2.6248,-2.6274,-2.6296,-2.6338,-2.6344,-2.6349,-2.6362,-2.6387,-2.6391,-2.6394,-2.6408,-2.6413,-2.6353,-2.6353,-2.6353,0,-2.5872,-2.5929,-2.5954,-2.5993,-2.6017,-2.6033,-2.6071,-2.6096,-2.6147,-2.6163,-2.6159,-2.6236,-2.6263,-2.6316,-2.6327,-2.6344,-2.6353,-2.6343,-2.6389,-2.6392,-2.6396,-2.6409,-2.6415,-2.6353,-2.6353,-2.6353,-2.6353,0,-2.5931,-2.597,-2.5995,-2.6046,-2.6073,-2.6111,-2.614,-2.6165,-2.6177,-2.6198,-2.6245,-2.6278,-2.6319,-2.6333,-2.6345,-2.6388,-2.6384,-2.6384,-2.6375,-2.6401,-2.6414,-2.6419,-2.6353,-2.6353,-2.6353,-2.6353,0,0,-2.5957,-2.6022,-2.6031,-2.6053,-2.6102,-2.6132,-2.6169,-2.6212,-2.6232,-2.6266,-2.6297,-2.6349,-2.635,-2.6374,-2.6388,-2.641,-2.644,-2.6408,-2.6409,-2.6411,-2.6488,-2.6487,-2.6493,-2.6445,-2.6446,-2.6447,-2.6485,0,-2.5994,-2.6064,-2.6088,-2.6144,-2.618,-2.6196,-2.6228,-2.6261,-2.6282,-2.6314,-2.6336,-2.6372,-2.6371,-2.6385,-2.6408,-2.6432,-2.6456,-2.643,-2.6472,-2.6473,-2.6461,-2.65,-2.6499,-2.6532,-2.649,-2.6491,-2.6491,0,-2.6047,-2.6084,-2.6145,-2.6188,-2.6204,-2.6233,-2.6273,-2.6304,-2.634,-2.6354,-2.6382,-2.6395,-2.6433,-2.6423,-2.6475,-2.6457,-2.6475,-2.649,-2.6492,-2.6495,-2.6483,-2.6503,-2.6544,-2.6548,-2.65,-2.6499,-2.6499,0,-2.6058,-2.6123,-2.6168,-2.6187,-2.6239,-2.6259,-2.6281,-2.6317,-2.6341,-2.6375,-2.6391,-2.6429,-2.645,-2.6478,-2.6501,-2.6491,-2.655,-2.6542,-2.6561,-2.656,-2.6571,-2.657,-2.6615,-2.6586,-2.6586,-2.6586,-2.6586,0,-2.6096,-2.6132,-2.6174,-2.6201,-2.6241,-2.6268,-2.6306,-2.6329,-2.6361,-2.6392,-2.6408,-2.6435,-2.6464,-2.6496,-2.6513,-2.6553,-2.6562,-2.6573,-2.6577,-2.6571,-2.657,-2.6583,-2.658,-2.6587,-2.6587,-2.6587,-2.6586,0,-2.6115,-2.6145,-2.6194,-2.624,-2.6252,-2.628,-2.6318,-2.6344,-2.6366,-2.6405,-2.6415,-2.6449,-2.6487,-2.6513,-2.6561,-2.6573,-2.6615,-2.662,-2.6603,-2.6605,-2.6622,-2.6619,-2.6675,-2.6683,-2.665,-2.6651,-2.6651,0,-2.6137,-2.6166,-2.6215,-2.6237,-2.626,-2.6296,-2.632,-2.6347,-2.6372,-2.6416,-2.6436,-2.6475,-2.6508,-2.6567,-2.6595,-2.6632,-2.6636,-2.6653,-2.6641,-2.6634,-2.6635,-2.6632,-2.6634,-2.6654,-2.6655,-2.6655,-2.6655,0,-2.6172,-2.6185,-2.6221,-2.6262,-2.6291,-2.6324,-2.6357,-2.6374,-2.6406,-2.6433,-2.6473,-2.6498,-2.6548,-2.6586,-2.6625,-2.6647,-2.6655,-2.6659,-2.6665,-2.6658,-2.6647,-2.6652,-2.6607,-2.6657,-2.6657,-2.6657,-2.6656,-2.6656,-2.6192,-2.6218,-2.6256,-2.6295,-2.6323,-2.6354,-2.638,-2.6406,-2.6441,-2.6484,-2.6498,-2.6538,-2.6573,-2.6627,-2.6649,-2.668,-2.6679,-2.6688,-2.669,-2.6691,-2.669,-2.6643,-2.6688,-2.6688,-2.6688,-2.6688,-2.6688,0,-2.6227,-2.6252,-2.6288,-2.6335,-2.6365,-2.6373,-2.641,-2.6434,-2.647,-2.6503,-2.6535,-2.658,-2.6617,-2.6648,-2.6686,-2.6705,-2.671,-2.6714,-2.6712,-2.6717,-2.669,-2.6681,-2.6709,-2.6709,-2.6709,-2.6709,-2.6709,-2.6709,-2.6248,-2.6291,-2.6309,-2.6366,-2.6391,-2.6433,-2.6453,-2.648,-2.6506,-2.6556,-2.6588,-2.6609,-2.664,-2.6681,-2.6715,-2.6723,-2.6735,-2.6738,-2.6747,-2.6721,-2.6718,-2.6716,-2.6707,-2.6741,-2.6741,-2.677,-2.677,-2.6771]}]]